Find Starlink 34127

NORAD ID: 63810 Int'l Des: 2025-092 Owner: SPXS Country: US Constellation: starlink operational
LEOCIRCULAR

当前视图

正在加载3D地球...

About Starlink 34127

Starlink 34127 (NORAD 63810) is a starlink constellation satellite (v2 mini) launched May 4, 2025 by SPXS of US. It operates in LEO, CIRCULAR orbit with a mass of 575.00 kg.

关于 Starlink 34127

正在加载描述...

即将过境

Passes for default location (London). Set your location on the main map for personalized predictions.

高度历史

Loading altitude history...

两行轨道根数

1 63810U 25092G 26169.69601782 .00012554 00000-0 46487-3 0 9998
2 63810 42.9997 321.9954 0001397 265.3428 94.7264 15.27586184 64068
Epoch: Jun 18, 2026 • Age: 48 hours

当前状态

高度 485.8 km
速度 7.62 km/s
星下点 -15.76°S, 10.7°W
发射日期 May 4, 2025
运行时间 1.1 years
类型 internet

技术详情

分类 Payload
质量 575.00 kg
干质量 530.00 kg
总质量 575.00 kg
长度 0.30 m
直径 4.10 m
跨度 29.00 m
形状 Box + pan
制造商 SPXS
平台类型 Starlink V2MO
阶段状态 In Orbit
所有者/国家 SPXS/US

Most Searched